Weather History for KBIS - November, 2014

Change the Weather History Date:

Thursday, November 27, 2014

  Actual Average Record
Temperature  
Mean Temperature 0 °F 23 °F  
Max Temperature 12 °F 33 °F 68 °F (1949)
Min Temperature -12 °F 13 °F -25 °F (1887)
Degree Days  
Heating Degree Days 65 42  
Month to date heating degree days 1133 944  
Since 1 July heating degree days 1909 1856  
Cooling Degree Days 0 0  
Month to date cooling degree days 0 0  
Year to date cooling degree days 457 520  
Moisture  
Dew Point 0 °F    
Average Humidity 84    
Maximum Humidity 95    
Minimum Humidity 73    
Precipitation  
Precipitation 0.08 in 0.02 in 0.49 in (1994)
Month to date precipitation 0.59 0.66  
Year to date precipitation 13.80 17.31  
Snow  
Snow 0.80 in 0.30 in 7.70 in (1994)
Month to date snowfall 7.9 7.9  
Since 1 July snowfall 7.9 10.3  
Since 1 September snowfall 7.9 10.3  
Snow Depth 3.00 in    
Sea Level Pressure  
Sea Level Pressure 30.25 in    
Wind  
Wind Speed 11 mph (ESE)    
Max Wind Speed 21 mph    
Max Gust Speed 26 mph    
Visibility 8 miles    
Events Fog , Snow    
T = Trace of Precipitation, MM = Missing Value Source: NWS Daily Summary

Daily Weather History Graph

Daily Weather History Graph

Search for Another Location

Airport or City:

Trip Planner

Search our weather history database for the weather conditions in past years. The results will help you decide how hot, cold, wet, or windy it might be!

Date:

Astronomy

Nov. 27, 2014 Rise Set
Actual Time 8:02 AM CST 4:58 PM CST
Civil Twilight 7:28 AM CST 5:32 PM CST
Nautical Twilight 6:50 AM CST 6:10 PM CST
Astronomical Twilight 6:14 AM CST 6:46 PM CST
Moon 12:09 PM CST (11/27) 10:51 PM CST (11/27)
Length of Visible Light 10h 04m
Length of Day
8h 56m
Waxing Crescent, 31% of the Moon is Illuminated
Nov 27
Waxing Crescent
Nov 29
First Quarter
Dec 6
Full
Dec 14
Last Quarter
Dec 21
New

Hourly Weather History & Observations

Time (CST) Temp. Windchill Dew Point Humidity Pressure Visibility Wind Dir Wind Speed Gust Speed Precip Events Conditions
12:52 AM -11.2 °F -26.4 °F -14.8 °F 84% 30.46 in 10.0 mi ENE 6.9 mph - N/A   Clear
1:50 AM -9.4 °F -20.9 °F -14.8 °F 77% 30.45 in 10.0 mi ENE 4.6 mph - N/A   Mostly Cloudy
1:52 AM -9.0 °F -18.2 °F -14.1 °F 79% 30.59 in 10.0 mi ENE 3.5 mph - N/A   Mostly Cloudy
2:52 AM -9.9 °F -26.3 °F -14.1 °F 82% 30.60 in 10.0 mi NE 8.1 mph - N/A   Overcast
3:52 AM -9.0 °F -23.8 °F -13.0 °F 83% 30.58 in 10.0 mi ENE 6.9 mph - N/A   Overcast
4:52 AM -7.1 °F -21.4 °F -11.9 °F 79% 30.56 in 10.0 mi ENE 6.9 mph - N/A   Overcast
5:52 AM -8.0 °F -22.5 °F -11.9 °F 83% 30.54 in 10.0 mi East 6.9 mph - N/A   Scattered Clouds
6:52 AM -4.0 °F -16.3 °F -9.0 °F 79% 30.52 in 10.0 mi ESE 5.8 mph - N/A   Mostly Cloudy
7:19 AM -7.1 °F -21.4 °F -11.9 °F 79% 30.35 in 10.0 mi ENE 6.9 mph - N/A   Mostly Cloudy
7:30 AM -9.0 °F -26.4 °F -13.0 °F 83% 30.34 in 10.0 mi East 9.2 mph - N/A   Scattered Clouds
7:52 AM -9.0 °F -25.2 °F -14.1 °F 79% 30.51 in 10.0 mi ENE 8.1 mph - N/A   Clear
8:52 AM -6.0 °F -21.5 °F -9.9 °F 83% 30.49 in 10.0 mi East 8.1 mph - N/A   Mostly Cloudy
9:52 AM 1.9 °F -12.9 °F -0.9 °F 88% 30.44 in 10.0 mi SE 9.2 mph - N/A   Overcast
10:52 AM 5.0 °F -9.1 °F 1.0 °F 84% 30.42 in 10.0 mi SE 9.2 mph - N/A   Overcast
11:52 AM 7.0 °F -9.8 °F 3.0 °F 84% 30.36 in 10.0 mi SE 13.8 mph - N/A   Overcast
12:52 PM 8.6 °F -8.9 °F 3.2 °F 79% 30.16 in 10.0 mi SSE 16.1 mph - N/A   Overcast
1:52 PM 10.0 °F -3.7 °F 3.9 °F 76% 30.27 in 10.0 mi SE 10.4 mph - N/A   Overcast
2:43 PM 12.0 °F -3.4 °F 6.1 °F 77% 30.10 in 2.5 mi SE 13.8 mph - 0.00 in Snow Light Snow
2:52 PM 12.0 °F -3.4 °F 7.0 °F 80% 30.23 in 1.0 mi SE 13.8 mph - 0.00 in Snow Light Snow
3:22 PM 12.0 °F -3.4 °F 8.1 °F 84% 30.06 in 0.8 mi SE 13.8 mph - 0.02 in Snow Light Snow
3:50 PM 12.2 °F -5.3 °F 8.6 °F 85% 30.05 in 0.5 mi SE 18.4 mph - 0.03 in Fog , Snow Snow
3:52 PM 12.0 °F -6.5 °F 9.0 °F 88% 30.18 in 0.5 mi SE 20.7 mph - 0.04 in Fog , Snow Snow
4:18 PM 12.0 °F -4.0 °F 9.0 °F 88% 30.04 in 0.5 mi SE 15.0 mph - 0.02 in Snow Light Snow
4:36 PM 12.0 °F -6.0 °F 9.0 °F 88% 30.02 in 0.8 mi SE 19.6 mph - 0.03 in Snow Light Snow
4:52 PM 12.0 °F -5.1 °F 9.0 °F 88% 30.14 in 1.2 mi SE 17.3 mph - 0.04 in Snow Light Snow
4:58 PM 12.0 °F -6.0 °F 9.0 °F 88% 30.00 in 3.0 mi SE 19.6 mph 25.3 mph 0.00 in Snow Light Snow
5:26 PM 12.0 °F -5.6 °F 8.1 °F 84% 30.00 in 3.0 mi SE 18.4 mph - 0.00 in Snow Light Snow
5:52 PM 12.0 °F -5.6 °F 8.1 °F 84% 30.12 in 6.0 mi SSE 18.4 mph - 0.00 in Snow Light Snow
6:52 PM 12.0 °F -5.1 °F 7.0 °F 80% 30.10 in 7.0 mi SSE 17.3 mph - 0.00 in Snow Light Snow
7:52 PM 12.0 °F -2.7 °F 7.0 °F 80% 30.10 in 10.0 mi SE 12.7 mph - 0.00 in   Overcast
8:52 PM 10.9 °F -4.1 °F 3.9 °F 73% 30.08 in 10.0 mi ESE 12.7 mph - N/A   Overcast
9:50 PM 10.4 °F -3.3 °F 5.0 °F 79% 29.92 in 10.0 mi ESE 10.4 mph - N/A   Scattered Clouds
9:52 PM 10.0 °F -3.7 °F 5.0 °F 80% 30.04 in 10.0 mi ESE 10.4 mph - N/A   Partly Cloudy
10:52 PM 12.0 °F -0.4 °F 8.1 °F 84% 30.02 in 10.0 mi East 9.2 mph - N/A   Overcast
11:52 PM 10.0 °F -2.9 °F 6.1 °F 84% 30.00 in 10.0 mi East 9.2 mph - N/A   Clear